Reggio Calabria, Italy

9:29 AM CET on January 17, 2018 (GMT +0100)
Reggio Calabria

Weather History for LICR - November, 2012

Change the Weather History Date:

Saturday, November 3, 2012

  Actual Average Record
Temperature  
Mean Temperature 66 °F -  
Max Temperature 73 °F 65 °F 80 °F (2004)
Min Temperature 60 °F 54 °F 50 °F (2006)
Cooling Degree Days 2    
Growing Degree Days 16 (Base 50)    
Moisture  
Dew Point 55 °F    
Average Humidity 66    
Maximum Humidity 77    
Minimum Humidity 47    
Precipitation  
Precipitation 0.00 in - - ()
Sea Level Pressure  
Sea Level Pressure 30.06 in    
Wind  
Wind Speed 7 mph ()    
Max Wind Speed 14 mph    
Max Gust Speed -    
Visibility 6.2 miles    
Events      
Averages and records for this station are not official NWS values.
T = Trace of Precipitation, MM = Missing Value Source: Averaged Metar Reports

Daily Weather History Graph

Daily Weather History Graph

Search for Another Location

Airport or City:

Trip Planner

Search our weather history database for the weather conditions in past years. The results will help you decide how hot, cold, wet, or windy it might be!

Date:

Astronomy

Nov. 03, 2012 Rise Set
Actual Time 6:25 AM CET 4:55 PM CET
Civil Twilight 5:58 AM CET 5:23 PM CET
Nautical Twilight 5:26 AM CET 5:54 PM CET
Astronomical Twilight 4:56 AM CET 6:25 PM CET
Moon 8:22 PM CET (11/3) 10:15 AM CET (11/3)
Length of Visible Light 11h 25m
Length of Day
10h 30m
Waning Gibbous, 82% of the Moon is Illuminated
Nov 3
Waning Gibbous
Nov 7
Last Quarter
Nov 13
New
Nov 20
First Quarter
Nov 28
Full

Hourly Weather History & Observations

Time (CET) Temp. Dew Point Humidity Pressure Visibility Wind Dir Wind Speed Gust Speed Precip Events Conditions
5:50 AM 64.4 °F 55.4 °F 73% 30.04 in 6.2 mi North 8.1 mph - N/A   Scattered Clouds
6:50 AM 62.6 °F 55.4 °F 77% 30.06 in 6.2 mi NNE 6.9 mph - N/A   Scattered Clouds
7:50 AM 66.2 °F 53.6 °F 64% 30.06 in 6.2 mi NE 4.6 mph - N/A   Scattered Clouds
8:50 AM 69.8 °F 55.4 °F 60% 30.09 in 6.2 mi NNW 5.8 mph - N/A   Scattered Clouds
9:50 AM 69.8 °F 57.2 °F 64% 30.09 in 6.2 mi NW 9.2 mph - N/A   Partly Cloudy
10:50 AM 71.6 °F 53.6 °F 53% 30.09 in 6.2 mi NNW 9.2 mph - N/A   Partly Cloudy
11:50 AM 71.6 °F 55.4 °F 57% 30.06 in 6.2 mi NNW 9.2 mph - N/A   Partly Cloudy
12:50 PM 73.4 °F 51.8 °F 47% 30.06 in 6.2 mi NNW 8.1 mph - N/A   Partly Cloudy
1:50 PM 73.4 °F 57.2 °F 57% 30.06 in 6.2 mi NNW 11.5 mph - N/A   Partly Cloudy
2:50 PM 69.8 °F 55.4 °F 60% 30.04 in 6.2 mi NNW 13.8 mph - N/A   Partly Cloudy
3:50 PM 69.8 °F 57.2 °F 64% 30.04 in 6.2 mi NNW 12.7 mph - N/A   Partly Cloudy
4:50 PM 68.0 °F 57.2 °F 68% 30.04 in 6.2 mi NNW 10.4 mph - N/A   Partly Cloudy
5:50 PM 66.2 °F 57.2 °F 73% 30.06 in 6.2 mi NNW 5.8 mph - N/A   Partly Cloudy
6:50 PM 64.4 °F 55.4 °F 73% 30.06 in 6.2 mi Variable 2.3 mph - N/A   Partly Cloudy
7:50 PM 62.6 °F 53.6 °F 72% 30.06 in 6.2 mi NE 3.5 mph - N/A   Partly Cloudy
8:50 PM 60.8 °F 53.6 °F 77% 30.06 in 6.2 mi NE 3.5 mph - N/A   Partly Cloudy
9:50 PM 60.8 °F 53.6 °F 77% 30.06 in 6.2 mi East 3.5 mph - N/A   Partly Cloudy
10:50 PM 62.6 °F 53.6 °F 72% 30.06 in 6.2 mi East 5.8 mph - N/A   Partly Cloudy
11:50 PM 62.6 °F 53.6 °F 72% 30.06 in 6.2 mi ENE 4.6 mph - N/A   Partly Cloudy